Location: Unspecified
(47.9110°N, 14.3980°E)
Time: 21:34:46
(UTC+00:00)

ERS-1 Rocket - Pass Details

Date: 06 August 2020
Orbit: 753 x 757 km, 98.5° (Epoch: 22 September)

Event Time Altitude Azimuth Distance (km) Brightness Sun altitude
Exits shadow 19:36:07 13° 121° (ESE) 2,067 4.6 -10.2°
Maximum altitude 19:39:53 31° 64° (ENE) 1,298 4.0 -10.7°
Drops below altitude 10° 19:44:17 10° 3° (N) 2,292 6.0 -11.3°
Sets 19:46:48 0° 354° (N) 3,221 7.0 -11.6°
